| time (UTC) | temp F | wind direction | speed MPH | gust MPH | rain 1hr in | rain 24hr in | rain mn in | humidity % | barometer mb |
| 20260906103041 | 84 | 281 | 2.0 | 6.0 | 0.00 | 0.00 | 0.00 | 74 | 1007.6 |
| 20260906102942 | 84 | 298 | 2.0 | 6.0 | 0.00 | 0.00 | 0.00 | 74 | 1007.5 |
| 20260906102540 | 84 | 284 | 2.0 | 4.0 | 0.00 | 0.00 | 0.00 | 74 | 1007.5 |
| 20260906102431 | 84 | 318 | 1.0 | 4.0 | 0.00 | 0.00 | 0.00 | 74 | 1007.5 |
| 20260906102040 | 84 | 324 | 2.0 | 4.0 | 0.00 | 0.00 | 0.00 | 74 | 1007.4 |
| 20260906101922 | 84 | 280 | 3.0 | 4.0 | 0.00 | 0.00 | 0.00 | 74 | 1007.5 |
| 20260906101539 | 84 | 333 | 1.0 | 7.0 | 0.00 | 0.00 | 0.00 | 74 | 1007.4 |
| 20260906101411 | 84 | 331 | 1.0 | 7.0 | 0.00 | 0.00 | 0.00 | 74 | 1007.4 |
| 20260906101040 | 84 | 114 | 2.0 | 10.0 | 0.00 | 0.00 | 0.00 | 74 | 1007.4 |
| 20260906100901 | 84 | 360 | 1.0 | 10.0 | 0.00 | 0.00 | 0.00 | 74 | 1007.4 |
| 20260906100540 | 85 | 24 | 2.0 | 6.0 | 0.00 | 0.00 | 0.00 | 74 | 1007.4 |
| 20260906100351 | 85 | 11 | 3.0 | 6.0 | 0.00 | 0.00 | 0.00 | 74 | 1007.4 |
| 20260906100040 | 85 | 347 | 3.0 | 10.0 | 0.00 | 0.00 | 0.00 | 74 | 1007.4 |
| 20260906095841 | 85 | 5 | 2.0 | 10.0 | 0.00 | 0.00 | 0.00 | 74 | 1007.3 |
| 20260906095540 | 85 | 297 | 2.0 | 8.0 | 0.00 | 0.00 | 0.00 | 74 | 1007.3 |
| 20260906095331 | 85 | 56 | 3.0 | 8.0 | 0.00 | 0.00 | 0.00 | 74 | 1007.3 |
| 20260906095040 | 85 | 332 | 3.0 | 10.0 | 0.00 | 0.00 | 0.00 | 73 | 1007.2 |
| 20260906094821 | 85 | 313 | 5.0 | 10.0 | 0.00 | 0.00 | 0.00 | 73 | 1007.3 |
| 20260906094540 | 85 | 2 | 3.0 | 9.0 | 0.00 | 0.00 | 0.00 | 73 | 1007.2 |
| 20260906094311 | 86 | 15 | 4.0 | 8.0 | 0.00 | 0.00 | 0.00 | 73 | 1007.2 |
| 20260906094039 | 86 | 352 | 4.0 | 7.0 | 0.00 | 0.00 | 0.00 | 73 | 1007.2 |
| 20260906093801 | 86 | 338 | 0.0 | 4.0 | 0.00 | 0.00 | 0.00 | 73 | 1007.2 |
| 20260906093540 | 86 | 262 | 2.0 | 5.0 | 0.00 | 0.00 | 0.00 | 73 | 1007.1 |
| 20260906093251 | 86 | 305 | 2.0 | 5.0 | 0.00 | 0.00 | 0.00 | 73 | 1007.1 |
| 20260906093040 | 86 | 244 | 2.0 | 4.0 | 0.00 | 0.00 | 0.00 | 73 | 1007.1 |
| 20260906092539 | 86 | 291 | 2.0 | 7.0 | 0.00 | 0.00 | 0.00 | 73 | 1007.1 |
| 20260906092231 | 86 | 40 | 3.0 | 9.0 | 0.00 | 0.00 | 0.00 | 73 | 1007.1 |
| 20260906092040 | 86 | 328 | 4.0 | 9.0 | 0.00 | 0.00 | 0.00 | 72 | 1007.1 |
| 20260906091540 | 87 | 41 | 4.0 | 10.0 | 0.00 | 0.00 | 0.00 | 71 | 1007.1 |
| 20260906091211 | 88 | 31 | 4.0 | 10.0 | 0.00 | 0.00 | 0.00 | 71 | 1007.0 |
| 20260906091039 | 88 | 342 | 4.0 | 8.0 | 0.00 | 0.00 | 0.00 | 71 | 1007.1 |
| 20260906090701 | 89 | 248 | 1.0 | 8.0 | 0.00 | 0.00 | 0.00 | 71 | 1007.0 |
| 20260906090540 | 89 | 8 | 2.0 | 10.0 | 0.00 | 0.00 | 0.00 | 71 | 1007.0 |
| 20260906090151 | 89 | 9 | 7.0 | 13.0 | 0.00 | 0.00 | 0.00 | 71 | 1007.0 |
| 20260906090040 | 89 | 72 | 5.0 | 13.0 | 0.00 | 0.00 | 0.00 | 71 | 1007.0 |
| 20260906085640 | 90 | 50 | 7.0 | 13.0 | 0.00 | 0.00 | 0.00 | 69 | 1007.0 |
| 20260906085539 | 90 | 12 | 5.0 | 13.0 | 0.00 | 0.00 | 0.00 | 69 | 1007.0 |
| 20260906085131 | 91 | 63 | 4.0 | 10.0 | 0.00 | 0.00 | 0.00 | 69 | 1007.0 |
| 20260906085039 | 91 | 294 | 6.0 | 10.0 | 0.00 | 0.00 | 0.00 | 69 | 1007.0 |
| 20260906084621 | 91 | 325 | 2.0 | 5.0 | 0.00 | 0.00 | 0.00 | 69 | 1007.0 |
| 20260906084539 | 91 | 311 | 1.0 | 5.0 | 0.00 | 0.00 | 0.00 | 68 | 1007.0 |
| 20260906084110 | 92 | 46 | 3.0 | 8.0 | 0.00 | 0.00 | 0.00 | 68 | 1006.9 |
| 20260906084039 | 92 | 18 | 2.0 | 8.0 | 0.00 | 0.00 | 0.00 | 68 | 1006.9 |
| 20260906083601 | 92 | 317 | 3.0 | 7.0 | 0.00 | 0.00 | 0.00 | 69 | 1006.9 |
| 20260906083539 | 91 | 309 | 2.0 | 7.0 | 0.00 | 0.00 | 0.00 | 68 | 1006.9 |
| 20260906083039 | 92 | 316 | 2.0 | 3.0 | 0.00 | 0.00 | 0.00 | 68 | 1006.9 |
| 20260906082541 | 92 | 319 | 1.0 | 6.0 | 0.00 | 0.00 | 0.00 | 68 | 1006.8 |
| 20260906082539 | 92 | 325 | 1.0 | 6.0 | 0.00 | 0.00 | 0.00 | 68 | 1006.8 |
| 20260906082039 | 92 | 244 | 3.0 | 7.0 | 0.00 | 0.00 | 0.00 | 69 | 1006.8 |
| 20260906082031 | 92 | 351 | 3.0 | 7.0 | 0.00 | 0.00 | 0.00 | 69 | 1006.8 |
| 20260906081539 | 90 | 255 | 5.0 | 7.0 | 0.00 | 0.00 | 0.00 | 70 | 1006.8 |
| 20260906081520 | 90 | 275 | 4.0 | 7.0 | 0.00 | 0.00 | 0.00 | 70 | 1006.8 |
| 20260906081039 | 89 | 303 | 5.0 | 9.0 | 0.00 | 0.00 | 0.00 | 71 | 1006.7 |
| 20260906081010 | 89 | 256 | 5.0 | 9.0 | 0.00 | 0.00 | 0.00 | 72 | 1006.7 |
| 20260906080539 | 88 | 243 | 6.0 | 10.0 | 0.00 | 0.00 | 0.00 | 72 | 1006.7 |
| 20260906080501 | 88 | 236 | 5.0 | 10.0 | 0.00 | 0.00 | 0.00 | 72 | 1006.8 |
| 20260906080038 | 87 | 161 | 5.0 | 13.0 | 0.00 | 0.00 | 0.00 | 72 | 1006.8 |
| 20260906075950 | 87 | 181 | 4.0 | 13.0 | 0.00 | 0.00 | 0.00 | 72 | 1006.8 |
| 20260906075539 | 88 | 252 | 5.0 | 11.0 | 0.00 | 0.00 | 0.00 | 71 | 1006.8 |
| 20260906075440 | 88 | 142 | 5.0 | 11.0 | 0.00 | 0.00 | 0.00 | 71 | 1006.8 |
| 20260906075039 | 88 | 179 | 6.0 | 13.0 | 0.00 | 0.00 | 0.00 | 71 | 1006.8 |
| 20260906074931 | 88 | 172 | 7.0 | 13.0 | 0.00 | 0.00 | 0.00 | 72 | 1006.8 |
| 20260906074538 | 88 | 306 | 6.0 | 12.0 | 0.00 | 0.00 | 0.00 | 72 | 1006.8 |
| 20260906074420 | 88 | 224 | 6.0 | 12.0 | 0.00 | 0.00 | 0.00 | 72 | 1006.8 |
| 20260906074039 | 87 | 202 | 7.0 | 12.0 | 0.00 | 0.00 | 0.00 | 72 | 1006.8 |
| 20260906073910 | 87 | 245 | 6.0 | 12.0 | 0.00 | 0.00 | 0.00 | 72 | 1006.8 |
| 20260906073539 | 87 | 175 | 4.0 | 11.0 | 0.00 | 0.00 | 0.00 | 73 | 1006.9 |
| 20260906073400 | 87 | 198 | 6.0 | 14.0 | 0.00 | 0.00 | 0.00 | 72 | 1006.8 |
| 20260906073039 | 88 | 241 | 9.0 | 14.0 | 0.00 | 0.00 | 0.00 | 72 | 1006.8 |
| 20260906072850 | 88 | 207 | 6.0 | 12.0 | 0.00 | 0.00 | 0.00 | 72 | 1006.8 |
| 20260906072538 | 89 | 191 | 5.0 | 11.0 | 0.00 | 0.00 | 0.00 | 72 | 1006.9 |
| 20260906072340 | 88 | 232 | 6.0 | 10.0 | 0.00 | 0.00 | 0.00 | 72 | 1006.9 |
| 20260906072039 | 88 | 316 | 1.0 | 11.0 | 0.00 | 0.00 | 0.00 | 74 | 1006.8 |
| 20260906071830 | 87 | 36 | 6.0 | 11.0 | 0.00 | 0.00 | 0.00 | 74 | 1006.8 |
| 20260906071539 | 87 | 203 | 5.0 | 11.0 | 0.00 | 0.00 | 0.00 | 74 | 1006.9 |
| 20260906071319 | 87 | 178 | 6.0 | 12.0 | 0.00 | 0.00 | 0.00 | 73 | 1006.9 |
| 20260906070810 | 87 | 176 | 5.0 | 13.0 | 0.00 | 0.00 | 0.00 | 74 | 1006.9 |
| 20260906070538 | 86 | 213 | 5.0 | 13.0 | 0.00 | 0.00 | 0.00 | 75 | 1007.0 |
| 20260906070300 | 86 | 235 | 8.0 | 13.0 | 0.00 | 0.00 | 0.00 | 75 | 1007.0 |
| 20260906070039 | 86 | 205 | 6.0 | 9.0 | 0.00 | 0.00 | 0.00 | 75 | 1007.0 |
| 20260906065749 | 86 | 216 | 5.0 | 10.0 | 0.00 | 0.00 | 0.00 | 75 | 1007.0 |
| 20260906065538 | 86 | 168 | 7.0 | 10.0 | 0.00 | 0.00 | 0.00 | 74 | 1007.1 |
| 20260906065240 | 86 | 187 | 7.0 | 10.0 | 0.00 | 0.00 | 0.00 | 74 | 1007.0 |
| 20260906065038 | 87 | 176 | 6.0 | 10.0 | 0.00 | 0.00 | 0.00 | 74 | 1007.1 |
| 20260906064038 | 87 | 143 | 8.0 | 13.0 | 0.00 | 0.00 | 0.00 | 74 | 1007.3 |
| 20260906063709 | 87 | 193 | 7.0 | 14.0 | 0.00 | 0.00 | 0.00 | 73 | 1007.2 |
| 20260906063538 | 87 | 206 | 8.0 | 14.0 | 0.00 | 0.00 | 0.00 | 73 | 1007.2 |
| 20260906063038 | 87 | 182 | 6.0 | 14.0 | 0.00 | 0.00 | 0.00 | 73 | 1007.4 |
| 20260906062649 | 87 | 181 | 6.0 | 13.0 | 0.00 | 0.00 | 0.00 | 73 | 1007.4 |
| 20260906062538 | 87 | 209 | 5.0 | 13.0 | 0.00 | 0.00 | 0.00 | 73 | 1007.4 |
| 20260906062038 | 88 | 166 | 6.0 | 12.0 | 0.00 | 0.00 | 0.00 | 73 | 1007.5 |
| 20260906061629 | 88 | 206 | 7.0 | 15.0 | 0.00 | 0.00 | 0.00 | 72 | 1007.5 |
| 20260906061538 | 88 | 214 | 5.0 | 15.0 | 0.00 | 0.00 | 0.00 | 72 | 1007.6 |
| 20260906061038 | 89 | 159 | 5.0 | 11.0 | 0.00 | 0.00 | 0.00 | 71 | 1007.6 |
| 20260906060610 | 89 | 254 | 7.0 | 12.0 | 0.00 | 0.00 | 0.00 | 72 | 1007.7 |
| 20260906060538 | 89 | 234 | 6.0 | 12.0 | 0.00 | 0.00 | 0.00 | 72 | 1007.7 |
| 20260906060038 | 88 | 232 | 4.0 | 13.0 | 0.00 | 0.00 | 0.00 | 74 | 1007.7 |
| 20260906055538 | 86 | 159 | 4.0 | 10.0 | 0.00 | 0.00 | 0.00 | 75 | 1007.9 |
| 20260906055041 | 87 | 235 | 2.0 | 6.0 | 0.00 | 0.00 | 0.00 | 75 | 1007.9 |
| 20260906055038 | 87 | 225 | 2.0 | 6.0 | 0.00 | 0.00 | 0.00 | 75 | 1008.0 |
| 20260906054538 | 86 | 264 | 4.0 | 9.0 | 0.00 | 0.00 | 0.00 | 75 | 1008.0 |
| 20260906054529 | 86 | 202 | 4.0 | 9.0 | 0.00 | 0.00 | 0.00 | 76 | 1008.0 |
| 20260906054038 | 86 | 192 | 6.0 | 9.0 | 0.00 | 0.00 | 0.00 | 75 | 1008.0 |
| 20260906054019 | 86 | 191 | 6.0 | 9.0 | 0.00 | 0.00 | 0.00 | 75 | 1008.0 |
| 20260906053538 | 85 | 215 | 4.0 | 12.0 | 0.00 | 0.00 | 0.00 | 76 | 1008.0 |
| 20260906053509 | 85 | 173 | 5.0 | 12.0 | 0.00 | 0.00 | 0.00 | 76 | 1008.1 |
| 20260906053037 | 85 | 202 | 5.0 | 13.0 | 0.00 | 0.00 | 0.00 | 77 | 1008.1 |
| 20260906052959 | 85 | 171 | 6.0 | 13.0 | 0.00 | 0.00 | 0.00 | 77 | 1008.1 |
| 20260906052538 | 85 | 172 | 7.0 | 14.0 | 0.00 | 0.00 | 0.00 | 76 | 1008.2 |
| 20260906052449 | 85 | 176 | 7.0 | 14.0 | 0.00 | 0.00 | 0.00 | 76 | 1008.2 |
| 20260906052038 | 86 | 325 | 6.0 | 11.0 | 0.00 | 0.00 | 0.00 | 75 | 1008.2 |
| 20260906051939 | 86 | 242 | 5.0 | 11.0 | 0.00 | 0.00 | 0.00 | 75 | 1008.1 |
| 20260906051538 | 86 | 220 | 6.0 | 11.0 | 0.00 | 0.00 | 0.00 | 74 | 1008.2 |
| 20260906051428 | 86 | 178 | 8.0 | 11.0 | 0.00 | 0.00 | 0.00 | 74 | 1008.2 |
| 20260906051037 | 86 | 204 | 7.0 | 10.0 | 0.00 | 0.00 | 0.00 | 72 | 1008.2 |
| 20260906050919 | 87 | 213 | 6.0 | 10.0 | 0.00 | 0.00 | 0.00 | 72 | 1008.2 |
| 20260906050538 | 87 | 189 | 6.0 | 10.0 | 0.00 | 0.00 | 0.00 | 71 | 1008.3 |
| 20260906050409 | 88 | 273 | 6.0 | 10.0 | 0.00 | 0.00 | 0.00 | 72 | 1008.3 |
| 20260906050038 | 88 | 225 | 6.0 | 7.0 | 0.00 | 0.00 | 0.00 | 71 | 1008.4 |
| 20260906045859 | 88 | 258 | 5.0 | 8.0 | 0.00 | 0.00 | 0.00 | 71 | 1008.4 |
| 20260906045537 | 88 | 268 | 5.0 | 8.0 | 0.00 | 0.00 | 0.00 | 72 | 1008.4 |
| 20260906045348 | 88 | 240 | 5.0 | 8.0 | 0.00 | 0.00 | 0.00 | 72 | 1008.5 |
| 20260906045037 | 87 | 229 | 5.0 | 8.0 | 0.00 | 0.00 | 0.00 | 72 | 1008.5 |
| 20260906044839 | 88 | 230 | 5.0 | 9.0 | 0.00 | 0.00 | 0.00 | 72 | 1008.6 |
| 20260906044537 | 87 | 228 | 5.0 | 9.0 | 0.00 | 0.00 | 0.00 | 72 | 1008.6 |
| 20260906044329 | 88 | 220 | 5.0 | 8.0 | 0.00 | 0.00 | 0.00 | 71 | 1008.7 |
| 20260906044038 | 87 | 239 | 5.0 | 8.0 | 0.00 | 0.00 | 0.00 | 72 | 1008.7 |
| 20260906043818 | 88 | 232 | 5.0 | 9.0 | 0.00 | 0.00 | 0.00 | 72 | 1008.7 |
| 20260906043537 | 88 | 236 | 5.0 | 9.0 | 0.00 | 0.00 | 0.00 | 72 | 1008.7 |
| 20260906043309 | 88 | 243 | 6.0 | 9.0 | 0.00 | 0.00 | 0.00 | 72 | 1008.7 |
| 20260906043037 | 87 | 224 | 6.0 | 9.0 | 0.00 | 0.00 | 0.00 | 73 | 1008.8 |
| 20260906042759 | 87 | 235 | 5.0 | 8.0 | 0.00 | 0.00 | 0.00 | 73 | 1008.8 |
| 20260906042537 | 87 | 279 | 6.0 | 9.0 | 0.00 | 0.00 | 0.00 | 73 | 1008.9 |
| 20260906042249 | 87 | 230 | 4.0 | 9.0 | 0.00 | 0.00 | 0.00 | 73 | 1008.8 |
| 20260906042038 | 87 | 161 | 4.0 | 8.0 | 0.00 | 0.00 | 0.00 | 73 | 1008.8 |
| 20260906041739 | 87 | 253 | 5.0 | 8.0 | 0.00 | 0.00 | 0.00 | 73 | 1008.8 |
| 20260906041537 | 87 | 210 | 5.0 | 7.0 | 0.00 | 0.00 | 0.00 | 72 | 1008.8 |
| 20260906041228 | 87 | 276 | 5.0 | 9.0 | 0.00 | 0.00 | 0.00 | 73 | 1008.9 |
| 20260906041037 | 87 | 242 | 6.0 | 9.0 | 0.00 | 0.00 | 0.00 | 73 | 1008.8 |
| 20260906040718 | 87 | 256 | 4.0 | 9.0 | 0.00 | 0.00 | 0.00 | 73 | 1008.9 |
| 20260906040537 | 87 | 232 | 5.0 | 8.0 | 0.00 | 0.00 | 0.00 | 73 | 1008.9 |
| 20260906040209 | 87 | 277 | 4.0 | 12.0 | 0.00 | 0.00 | 0.00 | 73 | 1008.9 |
| 20260906040037 | 87 | 222 | 6.0 | 12.0 | 0.00 | 0.00 | 0.00 | 72 | 1008.9 |
| 20260906035659 | 88 | 273 | 6.0 | 12.0 | 0.00 | 0.00 | 0.00 | 72 | 1008.9 |
| 20260906035537 | 88 | 246 | 7.0 | 12.0 | 0.00 | 0.00 | 0.00 | 73 | 1008.9 |
| 20260906035148 | 87 | 232 | 5.0 | 10.0 | 0.00 | 0.00 | 0.00 | 74 | 1008.9 |
| 20260906035037 | 87 | 237 | 6.0 | 10.0 | 0.00 | 0.00 | 0.00 | 74 | 1008.9 |
| 20260906034638 | 87 | 236 | 5.0 | 9.0 | 0.00 | 0.00 | 0.00 | 74 | 1009.0 |
| 20260906034537 | 87 | 268 | 5.0 | 9.0 | 0.00 | 0.00 | 0.00 | 74 | 1009.0 |
| 20260906034129 | 86 | 311 | 5.0 | 9.0 | 0.00 | 0.00 | 0.00 | 75 | 1009.1 |
| 20260906034037 | 86 | 234 | 5.0 | 9.0 | 0.00 | 0.00 | 0.00 | 75 | 1009.1 |
| 20260906033618 | 85 | 273 | 5.0 | 9.0 | 0.00 | 0.00 | 0.00 | 77 | 1009.1 |
| 20260906033536 | 85 | 250 | 5.0 | 9.0 | 0.00 | 0.00 | 0.00 | 77 | 1009.1 |
| 20260906033108 | 84 | 166 | 5.0 | 10.0 | 0.00 | 0.00 | 0.00 | 77 | 1009.1 |
| 20260906033037 | 84 | 197 | 5.0 | 10.0 | 0.00 | 0.00 | 0.00 | 77 | 1009.2 |
| 20260906032558 | 84 | 269 | 7.0 | 11.0 | 0.00 | 0.00 | 0.00 | 78 | 1009.2 |
| 20260906032537 | 84 | 211 | 7.0 | 11.0 | 0.00 | 0.00 | 0.00 | 78 | 1009.2 |
| 20260906032048 | 83 | 198 | 6.0 | 12.0 | 0.00 | 0.00 | 0.00 | 79 | 1009.2 |
| 20260906032036 | 83 | 256 | 6.0 | 12.0 | 0.00 | 0.00 | 0.00 | 79 | 1009.2 |
| 20260906031539 | 83 | 203 | 8.0 | 12.0 | 0.00 | 0.00 | 0.00 | 79 | 1009.3 |
| 20260906031537 | 83 | 276 | 8.0 | 12.0 | 0.00 | 0.00 | 0.00 | 79 | 1009.3 |
| 20260906031037 | 83 | 231 | 7.0 | 14.0 | 0.00 | 0.00 | 0.00 | 79 | 1009.3 |
| 20260906031028 | 83 | 199 | 7.0 | 14.0 | 0.00 | 0.00 | 0.00 | 79 | 1009.3 |
| 20260906030536 | 83 | 225 | 6.0 | 13.0 | 0.00 | 0.00 | 0.00 | 80 | 1009.3 |
| 20260906030036 | 83 | 227 | 6.0 | 13.0 | 0.00 | 0.00 | 0.00 | 79 | 1009.4 |
| 20260906030008 | 83 | 241 | 6.0 | 13.0 | 0.00 | 0.00 | 0.00 | 79 | 1009.4 |
| 20260906025537 | 83 | 256 | 6.0 | 11.0 | 0.00 | 0.00 | 0.00 | 80 | 1009.4 |
| 20260906025458 | 83 | 244 | 7.0 | 10.0 | 0.00 | 0.00 | 0.00 | 80 | 1009.4 |
| 20260906025037 | 83 | 277 | 7.0 | 12.0 | 0.00 | 0.00 | 0.00 | 80 | 1009.5 |
| 20260906024947 | 83 | 252 | 7.0 | 12.0 | 0.00 | 0.00 | 0.00 | 80 | 1009.4 |
| 20260906024536 | 82 | 200 | 5.0 | 11.0 | 0.00 | 0.00 | 0.00 | 81 | 1009.4 |
| 20260906024438 | 82 | 215 | 6.0 | 11.0 | 0.00 | 0.00 | 0.00 | 81 | 1009.4 |
| 20260906024037 | 82 | 258 | 6.0 | 9.0 | 0.00 | 0.00 | 0.00 | 81 | 1009.5 |
| 20260906023928 | 82 | 225 | 6.0 | 9.0 | 0.00 | 0.00 | 0.00 | 80 | 1009.5 |
| 20260906023537 | 82 | 242 | 6.0 | 8.0 | 0.00 | 0.00 | 0.00 | 81 | 1009.5 |
| 20260906023418 | 82 | 253 | 5.0 | 8.0 | 0.00 | 0.00 | 0.00 | 81 | 1009.6 |
| 20260906023036 | 82 | 226 | 5.0 | 9.0 | 0.00 | 0.00 | 0.00 | 81 | 1009.6 |
| 20260906022907 | 81 | 266 | 4.0 | 9.0 | 0.00 | 0.00 | 0.00 | 81 | 1009.6 |
| 20260906022536 | 81 | 179 | 5.0 | 9.0 | 0.00 | 0.00 | 0.00 | 82 | 1009.5 |
| 20260906022358 | 81 | 243 | 5.0 | 9.0 | 0.00 | 0.00 | 0.00 | 81 | 1009.5 |
| 20260906022036 | 81 | 208 | 3.0 | 9.0 | 0.00 | 0.00 | 0.00 | 82 | 1009.5 |
| 20260906021536 | 81 | 207 | 7.0 | 11.0 | 0.00 | 0.00 | 0.00 | 81 | 1009.5 |
| 20260906021337 | 81 | 216 | 7.0 | 10.0 | 0.00 | 0.00 | 0.00 | 81 | 1009.5 |
| 20260906021036 | 81 | 158 | 7.0 | 10.0 | 0.00 | 0.00 | 0.00 | 81 | 1009.5 |
| 20260906020828 | 81 | 169 | 5.0 | 12.0 | 0.00 | 0.00 | 0.00 | 82 | 1009.5 |
| 20260906020536 | 81 | 137 | 8.0 | 12.0 | 0.00 | 0.00 | 0.00 | 82 | 1009.5 |
| 20260906020318 | 80 | 151 | 7.0 | 11.0 | 0.00 | 0.00 | 0.00 | 82 | 1009.5 |
| 20260906020037 | 81 | 194 | 5.0 | 10.0 | 0.00 | 0.00 | 0.00 | 83 | 1009.4 |
| 20260906015807 | 81 | 196 | 5.0 | 12.0 | 0.00 | 0.00 | 0.00 | 83 | 1009.4 |
| 20260906015536 | 80 | 192 | 9.0 | 12.0 | 0.00 | 0.00 | 0.00 | 83 | 1009.5 |
| 20260906015257 | 80 | 189 | 6.0 | 12.0 | 0.00 | 0.00 | 0.00 | 83 | 1009.4 |
| 20260906015036 | 80 | 223 | 8.0 | 13.0 | 0.00 | 0.00 | 0.00 | 83 | 1009.4 |
| 20260906014748 | 80 | 234 | 7.0 | 13.0 | 0.00 | 0.00 | 0.00 | 83 | 1009.4 |
| 20260906014237 | 80 | 246 | 7.0 | 11.0 | 0.00 | 0.00 | 0.00 | 84 | 1009.4 |
| 20260906013727 | 80 | 244 | 6.0 | 15.0 | 0.00 | 0.00 | 0.00 | 84 | 1009.4 |
| 20260906013536 | 80 | 161 | 8.0 | 15.0 | 0.00 | 0.00 | 0.00 | 84 | 1009.4 |
| 20260906013035 | 80 | 181 | 6.0 | 11.0 | 0.00 | 0.00 | 0.00 | 85 | 1009.3 |
| 20260906012536 | 80 | 246 | 6.0 | 13.0 | 0.00 | 0.00 | 0.00 | 85 | 1009.3 |
| 20260906012157 | 80 | 233 | 9.0 | 13.0 | 0.00 | 0.00 | 0.00 | 85 | 1009.4 |
| 20260906012036 | 80 | 252 | 7.0 | 10.0 | 0.00 | 0.00 | 0.00 | 85 | 1009.4 |
| 20260906011647 | 80 | 241 | 5.0 | 11.0 | 0.00 | 0.00 | 0.00 | 85 | 1009.4 |
| 20260906011535 | 80 | 312 | 7.0 | 11.0 | 0.00 | 0.00 | 0.00 | 85 | 1009.5 |
| 20260906011137 | 80 | 233 | 1.0 | 8.0 | 0.00 | 0.00 | 0.00 | 85 | 1009.4 |
| 20260906011036 | 80 | 45 | 1.0 | 8.0 | 0.00 | 0.00 | 0.00 | 85 | 1009.5 |
| 20260906010627 | 79 | 277 | 2.0 | 9.0 | 0.00 | 0.00 | 0.00 | 85 | 1009.5 |
| 20260906010536 | 79 | 241 | 3.0 | 9.0 | 0.00 | 0.00 | 0.00 | 85 | 1009.5 |
| 20260906010117 | 80 | 142 | 2.0 | 4.0 | 0.00 | 0.00 | 0.00 | 85 | 1009.5 |
| 20260906010036 | 80 | 203 | 1.0 | 5.0 | 0.00 | 0.00 | 0.00 | 85 | 1009.4 |
| 20260906005536 | 79 | 201 | 4.0 | 10.0 | 0.00 | 0.00 | 0.00 | 85 | 1009.4 |
| 20260906005057 | 79 | 226 | 6.0 | 10.0 | 0.00 | 0.00 | 0.00 | 86 | 1009.3 |
| 20260906005035 | 79 | 206 | 6.0 | 10.0 | 0.00 | 0.00 | 0.00 | 86 | 1009.3 |
| 20260906004547 | 79 | 191 | 6.0 | 10.0 | 0.00 | 0.00 | 0.00 | 86 | 1009.2 |
| 20260906004535 | 79 | 212 | 5.0 | 10.0 | 0.00 | 0.00 | 0.00 | 86 | 1009.2 |
| 20260906004038 | 79 | 246 | 4.0 | 8.0 | 0.00 | 0.00 | 0.00 | 86 | 1009.2 |
| 20260906004036 | 79 | 213 | 4.0 | 8.0 | 0.00 | 0.00 | 0.00 | 86 | 1009.3 |
| 20260906003536 | 79 | 246 | 4.0 | 7.0 | 0.00 | 0.00 | 0.00 | 87 | 1009.1 |
| 20260906003527 | 79 | 216 | 4.0 | 7.0 | 0.00 | 0.00 | 0.00 | 87 | 1009.1 |
| 20260906003035 | 79 | 240 | 3.0 | 6.0 | 0.00 | 0.00 | 0.00 | 87 | 1009.1 |
| 20260906003015 | 79 | 268 | 3.0 | 6.0 | 0.00 | 0.00 | 0.00 | 87 | 1009.1 |
| 20260906002535 | 79 | 238 | 3.0 | 5.0 | 0.00 | 0.00 | 0.00 | 87 | 1009.1 |
| 20260906002507 | 79 | 245 | 2.0 | 3.0 | 0.00 | 0.00 | 0.00 | 87 | 1009.1 |
| 20260906002035 | 79 | 244 | 0.0 | 2.0 | 0.00 | 0.00 | 0.00 | 87 | 1009.1 |
| 20260906001957 | 79 | 257 | 1.0 | 2.0 | 0.00 | 0.00 | 0.00 | 87 | 1009.1 |
| 20260906001536 | 79 | 91 | 0.0 | 1.0 | 0.00 | 0.00 | 0.00 | 88 | 1009.1 |
| 20260906001446 | 79 | 328 | 0.0 | 1.0 | 0.00 | 0.00 | 0.00 | 88 | 1009.1 |
| 20260906001035 | 79 | 63 | 0.0 | 1.0 | 0.00 | 0.00 | 0.00 | 88 | 1009.2 |
| 20260906000937 | 79 | 100 | 0.0 | 1.0 | 0.00 | 0.00 | 0.00 | 88 | 1009.1 |
| 20260906000535 | 79 | 10 | 0.0 | 1.0 | 0.00 | 0.00 | 0.00 | 88 | 1009.1 |
| 20260906000427 | 79 | 19 | 0.0 | 1.0 | 0.00 | 0.00 | 0.00 | 88 | 1009.1 |
| 20260906000036 | 79 | 216 | 0.0 | 1.0 | 0.00 | 0.00 | 0.00 | 88 | 1009.0 |
| 20260905235917 | 79 | 10 | 0.0 | 2.0 | 0.00 | 0.00 | 0.00 | 88 | 1009.0 |
| 20260905235535 | 79 | 234 | 1.0 | 2.0 | 0.00 | 0.00 | 0.00 | 88 | 1009.0 |
| 20260905235406 | 79 | 250 | 1.0 | 2.0 | 0.00 | 0.00 | 0.00 | 88 | 1009.0 |
| 20260905235035 | 79 | 227 | 1.0 | 3.0 | 0.00 | 0.00 | 0.00 | 88 | 1008.9 |
| 20260905234857 | 79 | 238 | 1.0 | 3.0 | 0.00 | 0.00 | 0.00 | 88 | 1008.9 |
| 20260905234535 | 79 | 316 | 0.0 | 2.0 | 0.00 | 0.00 | 0.00 | 88 | 1008.9 |
| 20260905234347 | 79 | 289 | 0.0 | 2.0 | 0.00 | 0.00 | 0.00 | 88 | 1008.9 |
| 20260905234035 | 78 | 284 | 1.0 | 3.0 | 0.00 | 0.00 | 0.00 | 88 | 1008.9 |
| 20260905233836 | 78 | 213 | 1.0 | 3.0 | 0.00 | 0.00 | 0.00 | 88 | 1008.8 |
| 20260905233535 | 78 | 218 | 1.0 | 2.0 | 0.00 | 0.00 | 0.00 | 89 | 1008.8 |
| 20260905233327 | 78 | 178 | 0.0 | 2.0 | 0.00 | 0.00 | 0.00 | 89 | 1008.8 |
| 20260905233035 | 78 | 163 | 0.0 | 2.0 | 0.00 | 0.00 | 0.00 | 89 | 1008.7 |
| 20260905232816 | 78 | 149 | 0.0 | 1.0 | 0.00 | 0.00 | 0.00 | 89 | 1008.7 |
| 20260905232535 | 78 | 195 | 0.0 | 3.0 | 0.00 | 0.00 | 0.00 | 89 | 1008.6 |
| 20260905232306 | 78 | 217 | 0.0 | 3.0 | 0.00 | 0.00 | 0.00 | 89 | 1008.6 |
| 20260905232035 | 79 | 201 | 0.0 | 2.0 | 0.00 | 0.00 | 0.00 | 89 | 1008.6 |
| 20260905231535 | 79 | 270 | 1.0 | 2.0 | 0.00 | 0.00 | 0.00 | 89 | 1008.5 |
| 20260905231246 | 79 | 291 | 0.0 | 1.0 | 0.00 | 0.00 | 0.00 | 89 | 1008.4 |
| 20260905231035 | 79 | 270 | 0.0 | 1.0 | 0.00 | 0.00 | 0.00 | 89 | 1008.4 |
| 20260905230737 | 79 | 250 | 1.0 | 1.0 | 0.00 | 0.00 | 0.00 | 89 | 1008.3 |
| 20260905230536 | 79 | 277 | 0.0 | 1.0 | 0.00 | 0.00 | 0.00 | 89 | 1008.3 |
| 20260905230226 | 78 | 270 | 0.0 | 2.0 | 0.00 | 0.00 | 0.00 | 89 | 1008.3 |
| 20260905230035 | 78 | 274 | 1.0 | 2.0 | 0.00 | 0.00 | 0.00 | 89 | 1008.2 |
| 20260905225716 | 78 | 242 | 1.0 | 3.0 | 0.00 | 0.00 | 0.00 | 90 | 1008.2 |
| 20260905225535 | 78 | 211 | 2.0 | 3.0 | 0.00 | 0.00 | 0.00 | 89 | 1008.2 |
| 20260905225205 | 78 | 259 | 1.0 | 3.0 | 0.00 | 0.00 | 0.00 | 89 | 1008.2 |
| 20260905225034 | 78 | 238 | 1.0 | 3.0 | 0.00 | 0.00 | 0.00 | 90 | 1008.1 |
| 20260905224656 | 78 | 218 | 2.0 | 3.0 | 0.00 | 0.00 | 0.00 | 90 | 1008.1 |
| 20260905224534 | 78 | 209 | 2.0 | 3.0 | 0.00 | 0.00 | 0.00 | 90 | 1008.1 |
| 20260905224146 | 78 | 221 | 2.0 | 2.0 | 0.00 | 0.00 | 0.00 | 90 | 1008.1 |
| 20260905224035 | 78 | 215 | 1.0 | 2.0 | 0.00 | 0.00 | 0.00 | 90 | 1008.1 |
| 20260905223636 | 78 | 217 | 0.0 | 2.0 | 0.00 | 0.00 | 0.00 | 90 | 1008.0 |
| 20260905223535 | 78 | 240 | 1.0 | 2.0 | 0.00 | 0.00 | 0.00 | 90 | 1008.0 |
| 20260905223125 | 78 | 207 | 1.0 | 2.0 | 0.00 | 0.00 | 0.00 | 90 | 1008.0 |
| 20260905223034 | 78 | 206 | 1.0 | 2.0 | 0.00 | 0.00 | 0.00 | 90 | 1008.0 |
| 20260905222616 | 78 | 256 | 1.0 | 1.0 | 0.00 | 0.00 | 0.00 | 90 | 1007.9 |
| 20260905222535 | 78 | 264 | 0.0 | 1.0 | 0.00 | 0.00 | 0.00 | 90 | 1007.9 |
| 20260905222106 | 78 | 252 | 1.0 | 2.0 | 0.00 | 0.00 | 0.00 | 90 | 1007.9 |
| 20260905222035 | 78 | 245 | 1.0 | 2.0 | 0.00 | 0.00 | 0.00 | 90 | 1007.9 |
| 20260905221555 | 78 | 242 | 0.0 | 1.0 | 0.00 | 0.00 | 0.00 | 90 | 1007.9 |
| 20260905221534 | 78 | 248 | 0.0 | 1.0 | 0.00 | 0.00 | 0.00 | 90 | 1007.9 |
| 20260905221046 | 78 | 254 | 0.0 | 2.0 | 0.00 | 0.00 | 0.00 | 90 | 1007.9 |
| 20260905221034 | 78 | 254 | 0.0 | 2.0 | 0.00 | 0.00 | 0.00 | 90 | 1007.8 |
| 20260905220537 | 78 | 271 | 1.0 | 3.0 | 0.00 | 0.00 | 0.00 | 90 | 1007.9 |
| 20260905220534 | 78 | 280 | 1.0 | 3.0 | 0.00 | 0.00 | 0.00 | 90 | 1007.9 |
| 20260905220035 | 78 | 213 | 3.0 | 4.0 | 0.00 | 0.00 | 0.00 | 90 | 1007.8 |
| 20260905220026 | 78 | 192 | 3.0 | 4.0 | 0.00 | 0.00 | 0.00 | 90 | 1007.8 |
| 20260905215534 | 78 | 297 | 1.0 | 4.0 | 0.00 | 0.00 | 0.00 | 90 | 1007.8 |
| 20260905215515 | 78 | 245 | 1.0 | 4.0 | 0.00 | 0.00 | 0.00 | 90 | 1007.8 |
| 20260905215034 | 78 | 191 | 2.0 | 5.0 | 0.00 | 0.00 | 0.00 | 90 | 1007.8 |
| 20260905215005 | 78 | 178 | 2.0 | 5.0 | 0.00 | 0.00 | 0.00 | 90 | 1007.8 |
| 20260905214534 | 78 | 225 | 3.0 | 4.0 | 0.00 | 0.00 | 0.00 | 90 | 1007.8 |
| 20260905214455 | 78 | 214 | 3.0 | 4.0 | 0.00 | 0.00 | 0.00 | 90 | 1007.8 |
| 20260905213945 | 78 | 240 | 1.0 | 3.0 | 0.00 | 0.00 | 0.00 | 90 | 1007.8 |
| 20260905213436 | 78 | 303 | 1.0 | 1.0 | 0.00 | 0.00 | 0.00 | 90 | 1007.8 |
| 20260905213034 | 78 | 167 | 0.0 | 2.0 | 0.00 | 0.00 | 0.00 | 90 | 1007.7 |
| 20260905212925 | 78 | 168 | 0.0 | 2.0 | 0.00 | 0.00 | 0.00 | 90 | 1007.7 |
| 20260905212534 | 78 | 121 | 0.0 | 2.0 | 0.00 | 0.00 | 0.00 | 90 | 1007.7 |
| 20260905212415 | 78 | 237 | 0.0 | 4.0 | 0.00 | 0.00 | 0.00 | 90 | 1007.7 |
| 20260905212034 | 78 | 314 | 0.0 | 4.0 | 0.00 | 0.00 | 0.00 | 90 | 1007.6 |
| 20260905211906 | 78 | 273 | 1.0 | 4.0 | 0.00 | 0.00 | 0.00 | 90 | 1007.7 |
| 20260905211534 | 78 | 237 | 1.0 | 4.0 | 0.00 | 0.00 | 0.00 | 90 | 1007.7 |
| 20260905211355 | 78 | 183 | 1.0 | 4.0 | 0.00 | 0.00 | 0.00 | 90 | 1007.7 |
| 20260905211034 | 78 | 245 | 1.0 | 3.0 | 0.00 | 0.00 | 0.00 | 90 | 1007.7 |
| 20260905210845 | 78 | 223 | 2.0 | 4.0 | 0.00 | 0.00 | 0.00 | 90 | 1007.6 |
| 20260905210534 | 78 | 259 | 2.0 | 4.0 | 0.00 | 0.00 | 0.00 | 90 | 1007.6 |
| 20260905210335 | 78 | 265 | 1.0 | 1.0 | 0.00 | 0.00 | 0.00 | 90 | 1007.6 |
| 20260905210034 | 78 | 262 | 0.0 | 2.0 | 0.00 | 0.00 | 0.00 | 90 | 1007.6 |
| 20260905205825 | 78 | 281 | 1.0 | 2.0 | 0.00 | 0.00 | 0.00 | 90 | 1007.6 |
| 20260905205532 | 78 | 272 | 0.0 | 1.0 | 0.00 | 0.00 | 0.00 | 90 | 1007.6 |
| 20260905205033 | 78 | 269 | 0.0 | 1.0 | 0.00 | 0.00 | 0.00 | 90 | 1007.6 |
| 20260905204805 | 78 | 234 | 0.0 | 1.0 | 0.00 | 0.00 | 0.00 | 90 | 1007.6 |
| 20260905204534 | 78 | 222 | 1.0 | 1.0 | 0.00 | 0.00 | 0.00 | 90 | 1007.6 |
| 20260905204255 | 78 | 222 | 0.0 | 1.0 | 0.00 | 0.00 | 0.00 | 90 | 1007.6 |
| 20260905204034 | 78 | 268 | 0.0 | 2.0 | 0.00 | 0.00 | 0.00 | 90 | 1007.6 |
| 20260905203745 | 78 | 163 | 0.0 | 2.0 | 0.00 | 0.00 | 0.00 | 90 | 1007.6 |
| 20260905203534 | 78 | 266 | 0.0 | 3.0 | 0.00 | 0.00 | 0.00 | 89 | 1007.6 |
| 20260905203235 | 78 | 238 | 1.0 | 3.0 | 0.00 | 0.00 | 0.00 | 89 | 1007.6 |
| 20260905203033 | 78 | 275 | 1.0 | 2.0 | 0.00 | 0.00 | 0.00 | 89 | 1007.6 |
| 20260905202725 | 78 | 269 | 1.0 | 2.0 | 0.00 | 0.00 | 0.00 | 89 | 1007.6 |
| 20260905202534 | 78 | 257 | 1.0 | 2.0 | 0.00 | 0.00 | 0.00 | 89 | 1007.6 |
| 20260905202215 | 78 | 253 | 1.0 | 3.0 | 0.00 | 0.00 | 0.00 | 89 | 1007.6 |
| 20260905202034 | 78 | 246 | 1.0 | 3.0 | 0.00 | 0.00 | 0.00 | 89 | 1007.6 |
| 20260905201705 | 78 | 198 | 1.0 | 3.0 | 0.00 | 0.00 | 0.00 | 89 | 1007.7 |
| 20260905201533 | 77 | 184 | 1.0 | 4.0 | 0.00 | 0.00 | 0.00 | 89 | 1007.6 |
| 20260905201155 | 78 | 169 | 2.0 | 4.0 | 0.00 | 0.00 | 0.00 | 89 | 1007.6 |
| 20260905201033 | 78 | 175 | 2.0 | 4.0 | 0.00 | 0.00 | 0.00 | 89 | 1007.7 |
| 20260905200645 | 78 | 214 | 3.0 | 4.0 | 0.00 | 0.00 | 0.00 | 89 | 1007.6 |
| 20260905200534 | 78 | 221 | 2.0 | 4.0 | 0.00 | 0.00 | 0.00 | 89 | 1007.6 |
| 20260905200134 | 78 | 271 | 1.0 | 5.0 | 0.00 | 0.00 | 0.00 | 89 | 1007.6 |
| 20260905200033 | 78 | 224 | 3.0 | 5.0 | 0.00 | 0.00 | 0.00 | 89 | 1007.6 |
| 20260905195624 | 78 | 271 | 2.0 | 11.0 | 0.00 | 0.00 | 0.00 | 89 | 1007.5 |
| 20260905195115 | 78 | 202 | 2.0 | 7.0 | 0.00 | 0.00 | 0.00 | 89 | 1007.5 |
| 20260905195033 | 78 | 199 | 2.0 | 7.0 | 0.00 | 0.00 | 0.00 | 89 | 1007.5 |
| 20260905194605 | 79 | 167 | 3.0 | 7.0 | 0.00 | 0.00 | 0.00 | 88 | 1007.4 |
| 20260905194534 | 79 | 233 | 3.0 | 7.0 | 0.00 | 0.00 | 0.00 | 88 | 1007.4 |
| 20260905194054 | 79 | 132 | 3.0 | 6.0 | 0.00 | 0.00 | 0.00 | 88 | 1007.4 |
| 20260905194033 | 79 | 129 | 3.0 | 6.0 | 0.00 | 0.00 | 0.00 | 88 | 1007.4 |
| 20260905193544 | 79 | 207 | 5.0 | 9.0 | 0.00 | 0.00 | 0.00 | 88 | 1007.4 |
| 20260905193533 | 79 | 186 | 4.0 | 9.0 | 0.00 | 0.00 | 0.00 | 88 | 1007.4 |
| 20260905193035 | 79 | 239 | 6.0 | 8.0 | 0.00 | 0.00 | 0.00 | 88 | 1007.4 |
| 20260905193033 | 79 | 251 | 6.0 | 8.0 | 0.00 | 0.00 | 0.00 | 88 | 1007.4 |
| 20260905192533 | 80 | 360 | 1.0 | 10.0 | 0.00 | 0.00 | 0.00 | 87 | 1007.4 |
| 20260905192525 | 80 | 355 | 1.0 | 10.0 | 0.00 | 0.00 | 0.00 | 87 | 1007.4 |
| 20260905192033 | 80 | 230 | 6.0 | 9.0 | 0.00 | 0.00 | 0.00 | 87 | 1007.4 |
| 20260905191533 | 80 | 65 | 0.0 | 4.0 | 0.00 | 0.00 | 0.00 | 87 | 1007.4 |
| 20260905191504 | 80 | 19 | 0.0 | 4.0 | 0.00 | 0.00 | 0.00 | 87 | 1007.5 |
| 20260905191033 | 80 | 21 | 0.0 | 4.0 | 0.00 | 0.00 | 0.00 | 86 | 1007.4 |
| 20260905190533 | 80 | 63 | 1.0 | 7.0 | 0.00 | 0.00 | 0.00 | 86 | 1007.5 |
| 20260905190445 | 80 | 34 | 4.0 | 7.0 | 0.00 | 0.00 | 0.00 | 86 | 1007.4 |
| 20260905190032 | 80 | 18 | 3.0 | 5.0 | 0.00 | 0.00 | 0.00 | 86 | 1007.4 |
| 20260905185934 | 80 | 360 | 2.0 | 5.0 | 0.00 | 0.00 | 0.00 | 86 | 1007.5 |
| 20260905185533 | 81 | 360 | 0.0 | 2.0 | 0.00 | 0.00 | 0.00 | 86 | 1007.4 |
| 20260905185424 | 81 | 327 | 0.0 | 2.0 | 0.00 | 0.00 | 0.00 | 86 | 1007.4 |
| 20260905185033 | 81 | 276 | 0.0 | 2.0 | 0.00 | 0.00 | 0.00 | 85 | 1007.4 |
| 20260905184914 | 81 | 280 | 0.0 | 2.0 | 0.00 | 0.00 | 0.00 | 85 | 1007.4 |
| 20260905184532 | 81 | 18 | 1.0 | 2.0 | 0.00 | 0.00 | 0.00 | 85 | 1007.4 |
| 20260905184033 | 81 | 19 | 0.0 | 1.0 | 0.00 | 0.00 | 0.00 | 85 | 1007.5 |
| 20260905183854 | 81 | 10 | 1.0 | 2.0 | 0.00 | 0.00 | 0.00 | 84 | 1007.5 |
| 20260905183533 | 81 | 28 | 1.0 | 2.0 | 0.00 | 0.00 | 0.00 | 84 | 1007.5 |
| 20260905183344 | 81 | 40 | 1.0 | 2.0 | 0.00 | 0.00 | 0.00 | 84 | 1007.5 |
| 20260905183033 | 81 | 54 | 1.0 | 2.0 | 0.00 | 0.00 | 0.00 | 83 | 1007.5 |
| 20260905182834 | 81 | 39 | 2.0 | 6.0 | 0.00 | 0.00 | 0.00 | 83 | 1007.6 |
| 20260905182532 | 81 | 62 | 3.0 | 6.0 | 0.00 | 0.00 | 0.00 | 82 | 1007.6 |
| 20260905182324 | 82 | 58 | 2.0 | 5.0 | 0.00 | 0.00 | 0.00 | 82 | 1007.5 |
| 20260905182033 | 82 | 33 | 2.0 | 6.0 | 0.00 | 0.00 | 0.00 | 82 | 1007.5 |
| 20260905181814 | 82 | 38 | 2.0 | 4.0 | 0.00 | 0.00 | 0.00 | 82 | 1007.5 |
| 20260905181532 | 82 | 51 | 1.0 | 2.0 | 0.00 | 0.00 | 0.00 | 81 | 1007.6 |
| 20260905181303 | 82 | 20 | 0.0 | 1.0 | 0.00 | 0.00 | 0.00 | 81 | 1007.6 |
| 20260905181032 | 82 | 129 | 0.0 | 1.0 | 0.00 | 0.00 | 0.00 | 81 | 1007.6 |
| 20260905180754 | 82 | 267 | 0.0 | 4.0 | 0.00 | 0.00 | 0.00 | 81 | 1007.5 |
| 20260905180532 | 82 | 324 | 0.0 | 4.0 | 0.00 | 0.00 | 0.00 | 81 | 1007.5 |
| 20260905180244 | 82 | 216 | 1.0 | 4.0 | 0.00 | 0.00 | 0.00 | 80 | 1007.6 |
| 20260905180033 | 82 | 257 | 1.0 | 3.0 | 0.00 | 0.00 | 0.00 | 80 | 1007.7 |
| 20260905175734 | 82 | 201 | 1.0 | 2.0 | 0.00 | 0.00 | 0.00 | 80 | 1007.7 |
| 20260905175532 | 82 | 183 | 0.0 | 2.0 | 0.00 | 0.00 | 0.00 | 80 | 1007.7 |
| 20260905175223 | 82 | 219 | 1.0 | 3.0 | 0.00 | 0.00 | 0.00 | 80 | 1007.8 |
| 20260905175032 | 82 | 215 | 1.0 | 3.0 | 0.00 | 0.00 | 0.00 | 80 | 1007.8 |
| 20260905174532 | 82 | 118 | 2.0 | 6.0 | 0.00 | 0.00 | 0.00 | 80 | 1007.9 |
| 20260905174204 | 82 | 157 | 3.0 | 5.0 | 0.00 | 0.00 | 0.00 | 80 | 1007.9 |
| 20260905174032 | 82 | 192 | 1.0 | 5.0 | 0.00 | 0.00 | 0.00 | 80 | 1007.9 |
| 20260905173653 | 82 | 199 | 2.0 | 5.0 | 0.00 | 0.00 | 0.00 | 80 | 1008.0 |
| 20260905173532 | 82 | 149 | 1.0 | 4.0 | 0.00 | 0.00 | 0.00 | 80 | 1007.9 |
| 20260905173144 | 82 | 252 | 1.0 | 4.0 | 0.00 | 0.00 | 0.00 | 80 | 1007.9 |
| 20260905173032 | 82 | 208 | 2.0 | 4.0 | 0.00 | 0.00 | 0.00 | 80 | 1007.9 |
| 20260905172633 | 82 | 252 | 1.0 | 4.0 | 0.00 | 0.00 | 0.00 | 80 | 1007.9 |
| 20260905172532 | 82 | 222 | 1.0 | 4.0 | 0.00 | 0.00 | 0.00 | 80 | 1007.8 |
| 20260905172123 | 82 | 264 | 0.0 | 1.0 | 0.00 | 0.00 | 0.00 | 80 | 1007.9 |
| 20260905172032 | 82 | 238 | 0.0 | 1.0 | 0.00 | 0.00 | 0.00 | 80 | 1007.9 |
| 20260905171613 | 82 | 167 | 0.0 | 2.0 | 0.00 | 0.00 | 0.00 | 80 | 1007.9 |
| 20260905171532 | 82 | 101 | 1.0 | 2.0 | 0.00 | 0.00 | 0.00 | 80 | 1007.9 |
| 20260905171104 | 82 | 129 | 0.0 | 1.0 | 0.00 | 0.00 | 0.00 | 80 | 1007.9 |
| 20260905171032 | 82 | 148 | 0.0 | 1.0 | 0.00 | 0.00 | 0.00 | 80 | 1007.9 |
| 20260905170553 | 82 | 51 | 0.0 | 1.0 | 0.00 | 0.00 | 0.00 | 80 | 1007.9 |
| 20260905170532 | 82 | 18 | 0.0 | 1.0 | 0.00 | 0.00 | 0.00 | 80 | 1007.9 |
| 20260905170043 | 82 | 40 | 0.0 | 1.0 | 0.00 | 0.00 | 0.00 | 80 | 1007.8 |
| 20260905170032 | 82 | 38 | 0.0 | 1.0 | 0.00 | 0.00 | 0.00 | 80 | 1007.9 |
| 20260905165534 | 82 | 37 | 1.0 | 3.0 | 0.00 | 0.00 | 0.00 | 80 | 1007.9 |
| 20260905165532 | 82 | 36 | 1.0 | 3.0 | 0.00 | 0.00 | 0.00 | 80 | 1007.9 |
| 20260905165032 | 83 | 38 | 1.0 | 1.0 | 0.00 | 0.00 | 0.00 | 80 | 1008.0 |
| 20260905165023 | 83 | 39 | 0.0 | 1.0 | 0.00 | 0.00 | 0.00 | 80 | 1008.0 |
| 20260905164532 | 82 | 39 | 1.0 | 3.0 | 0.00 | 0.00 | 0.00 | 80 | 1008.0 |
| 20260905164513 | 82 | 50 | 1.0 | 3.0 | 0.00 | 0.00 | 0.00 | 80 | 1008.0 |
| 20260905164032 | 82 | 43 | 1.0 | 4.0 | 0.00 | 0.00 | 0.00 | 80 | 1008.1 |
| 20260905164003 | 82 | 40 | 0.0 | 4.0 | 0.00 | 0.00 | 0.00 | 80 | 1008.1 |
| 20260905163531 | 83 | 77 | 1.0 | 3.0 | 0.00 | 0.00 | 0.00 | 80 | 1008.2 |
| 20260905163453 | 83 | 11 | 2.0 | 3.0 | 0.00 | 0.00 | 0.00 | 80 | 1008.2 |
| 20260905163031 | 83 | 348 | 2.0 | 5.0 | 0.00 | 0.00 | 0.00 | 80 | 1008.2 |
| 20260905162943 | 83 | 24 | 3.0 | 5.0 | 0.00 | 0.00 | 0.00 | 80 | 1008.2 |
| 20260905162531 | 83 | 29 | 2.0 | 2.0 | 0.00 | 0.00 | 0.00 | 80 | 1008.2 |
| 20260905162433 | 83 | 30 | 1.0 | 2.0 | 0.00 | 0.00 | 0.00 | 80 | 1008.2 |
| 20260905162032 | 83 | 45 | 0.0 | 4.0 | 0.00 | 0.00 | 0.00 | 80 | 1008.3 |
| 20260905161923 | 83 | 36 | 1.0 | 4.0 | 0.00 | 0.00 | 0.00 | 80 | 1008.2 |
| 20260905161532 | 83 | 13 | 2.0 | 3.0 | 0.00 | 0.00 | 0.00 | 80 | 1008.2 |
| 20260905161412 | 83 | 59 | 1.0 | 2.0 | 0.00 | 0.00 | 0.00 | 80 | 1008.2 |
| 20260905161031 | 83 | 67 | 0.0 | 4.0 | 0.00 | 0.00 | 0.00 | 80 | 1008.3 |
| 20260905160903 | 83 | 239 | 2.0 | 4.0 | 0.00 | 0.00 | 0.00 | 80 | 1008.3 |
| 20260905160532 | 83 | 279 | 1.0 | 4.0 | 0.00 | 0.00 | 0.00 | 80 | 1008.3 |
| 20260905160353 | 83 | 249 | 2.0 | 4.0 | 0.00 | 0.00 | 0.00 | 80 | 1008.3 |
| 20260905160032 | 83 | 217 | 2.0 | 9.0 | 0.00 | 0.00 | 0.00 | 79 | 1008.4 |
| 20260905155842 | 83 | 98 | 4.0 | 9.0 | 0.00 | 0.00 | 0.00 | 79 | 1008.4 |
| 20260905155531 | 83 | 184 | 3.0 | 5.0 | 0.00 | 0.00 | 0.00 | 79 | 1008.3 |
| 20260905155333 | 83 | 117 | 1.0 | 5.0 | 0.00 | 0.00 | 0.00 | 79 | 1008.4 |
| 20260905155033 | 83 | 229 | 1.0 | 4.0 | 0.00 | 0.00 | 0.00 | 79 | 1008.3 |
| 20260905154823 | 83 | 175 | 0.0 | 3.0 | 0.00 | 0.00 | 0.00 | 79 | 1008.3 |
| 20260905154532 | 83 | 39 | 1.0 | 3.0 | 0.00 | 0.00 | 0.00 | 79 | 1008.3 |
| 20260905154312 | 83 | 77 | 1.0 | 2.0 | 0.00 | 0.00 | 0.00 | 79 | 1008.4 |
| 20260905154031 | 83 | 50 | 1.0 | 3.0 | 0.00 | 0.00 | 0.00 | 79 | 1008.4 |
| 20260905153802 | 83 | 66 | 2.0 | 7.0 | 0.00 | 0.00 | 0.00 | 79 | 1008.5 |
| 20260905153531 | 83 | 31 | 2.0 | 7.0 | 0.00 | 0.00 | 0.00 | 79 | 1008.6 |
| 20260905153253 | 83 | 224 | 1.0 | 3.0 | 0.00 | 0.00 | 0.00 | 79 | 1008.5 |
| 20260905153031 | 83 | 161 | 1.0 | 5.0 | 0.00 | 0.00 | 0.00 | 79 | 1008.6 |
| 20260905152742 | 83 | 267 | 1.0 | 5.0 | 0.00 | 0.00 | 0.00 | 79 | 1008.7 |
| 20260905152531 | 83 | 238 | 0.0 | 2.0 | 0.00 | 0.00 | 0.00 | 79 | 1008.7 |
| 20260905152232 | 83 | 351 | 0.0 | 2.0 | 0.00 | 0.00 | 0.00 | 79 | 1008.7 |
| 20260905152031 | 83 | 103 | 0.0 | 2.0 | 0.00 | 0.00 | 0.00 | 79 | 1008.6 |
| 20260905151722 | 83 | 44 | 1.0 | 6.0 | 0.00 | 0.00 | 0.00 | 80 | 1008.7 |
| 20260905151531 | 83 | 306 | 1.0 | 6.0 | 0.00 | 0.00 | 0.00 | 79 | 1008.7 |
| 20260905151213 | 83 | 259 | 3.0 | 5.0 | 0.00 | 0.00 | 0.00 | 80 | 1008.7 |
| 20260905151031 | 83 | 249 | 1.0 | 3.0 | 0.00 | 0.00 | 0.00 | 80 | 1008.6 |
| 20260905150702 | 83 | 38 | 1.0 | 3.0 | 0.00 | 0.00 | 0.00 | 80 | 1008.6 |
| 20260905150531 | 83 | 10 | 1.0 | 3.0 | 0.00 | 0.00 | 0.00 | 80 | 1008.6 |
| 20260905150152 | 83 | 225 | 1.0 | 7.0 | 0.00 | 0.00 | 0.00 | 80 | 1008.7 |
| 20260905150031 | 83 | 181 | 1.0 | 7.0 | 0.00 | 0.00 | 0.00 | 80 | 1008.6 |
| 20260905145642 | 82 | 204 | 5.0 | 8.0 | 0.00 | 0.00 | 0.00 | 80 | 1008.6 |
| 20260905145531 | 82 | 229 | 6.0 | 8.0 | 0.00 | 0.00 | 0.00 | 80 | 1008.6 |
| 20260905145133 | 82 | 97 | 0.0 | 10.0 | 0.00 | 0.00 | 0.00 | 80 | 1008.6 |
| 20260905145031 | 82 | 345 | 4.0 | 10.0 | 0.00 | 0.00 | 0.00 | 80 | 1008.6 |
| 20260905144622 | 83 | 341 | 1.0 | 8.0 | 0.00 | 0.00 | 0.00 | 81 | 1008.6 |
| 20260905144530 | 83 | 240 | 1.0 | 8.0 | 0.00 | 0.00 | 0.00 | 81 | 1008.6 |
| 20260905144031 | 83 | 236 | 4.0 | 8.0 | 0.00 | 0.00 | 0.00 | 81 | 1008.6 |
| 20260905143602 | 83 | 199 | 4.0 | 8.0 | 0.00 | 0.00 | 0.00 | 81 | 1008.7 |
| 20260905143531 | 83 | 250 | 4.0 | 8.0 | 0.00 | 0.00 | 0.00 | 81 | 1008.7 |
| 20260905143053 | 83 | 327 | 1.0 | 8.0 | 0.00 | 0.00 | 0.00 | 81 | 1008.7 |
| 20260905143031 | 83 | 313 | 2.0 | 8.0 | 0.00 | 0.00 | 0.00 | 81 | 1008.7 |
| 20260905142542 | 83 | 248 | 5.0 | 9.0 | 0.00 | 0.00 | 0.00 | 81 | 1008.8 |
| 20260905142530 | 83 | 238 | 5.0 | 9.0 | 0.00 | 0.00 | 0.00 | 81 | 1008.8 |
| 20260905142033 | 83 | 252 | 2.0 | 4.0 | 0.00 | 0.00 | 0.00 | 81 | 1008.9 |
| 20260905142031 | 83 | 243 | 2.0 | 4.0 | 0.00 | 0.00 | 0.00 | 81 | 1008.9 |
| 20260905141531 | 83 | 179 | 3.0 | 10.0 | 0.00 | 0.00 | 0.00 | 81 | 1009.0 |
| 20260905141522 | 83 | 198 | 3.0 | 10.0 | 0.00 | 0.00 | 0.00 | 81 | 1008.9 |
| 20260905141030 | 83 | 251 | 2.0 | 5.0 | 0.00 | 0.00 | 0.00 | 81 | 1008.9 |
| 20260905141012 | 83 | 190 | 2.0 | 5.0 | 0.00 | 0.00 | 0.00 | 81 | 1008.9 |
| 20260905140530 | 83 | 337 | 1.0 | 9.0 | 0.00 | 0.00 | 0.00 | 81 | 1009.0 |
| 20260905140502 | 83 | 359 | 0.0 | 9.0 | 0.00 | 0.00 | 0.00 | 81 | 1009.0 |
| 20260905140031 | 83 | 212 | 6.0 | 9.0 | 0.00 | 0.00 | 0.00 | 81 | 1009.0 |
| 20260905135952 | 83 | 238 | 4.0 | 7.0 | 0.00 | 0.00 | 0.00 | 81 | 1009.0 |
| 20260905135530 | 83 | 228 | 2.0 | 6.0 | 0.00 | 0.00 | 0.00 | 81 | 1009.0 |
| 20260905135442 | 83 | 231 | 2.0 | 8.0 | 0.00 | 0.00 | 0.00 | 81 | 1009.0 |
| 20260905135030 | 83 | 238 | 3.0 | 8.0 | 0.00 | 0.00 | 0.00 | 81 | 1008.9 |
| 20260905134931 | 83 | 225 | 3.0 | 6.0 | 0.00 | 0.00 | 0.00 | 81 | 1008.9 |
| 20260905134530 | 83 | 286 | 3.0 | 5.0 | 0.00 | 0.00 | 0.00 | 81 | 1008.9 |
| 20260905134422 | 83 | 279 | 1.0 | 5.0 | 0.00 | 0.00 | 0.00 | 81 | 1008.9 |
| 20260905134030 | 83 | 15 | 1.0 | 4.0 | 0.00 | 0.00 | 0.00 | 81 | 1008.8 |
| 20260905133912 | 83 | 293 | 1.0 | 5.0 | 0.00 | 0.00 | 0.00 | 81 | 1008.8 |
| 20260905133401 | 83 | 249 | 4.0 | 6.0 | 0.00 | 0.00 | 0.00 | 80 | 1008.8 |
| 20260905132851 | 83 | 206 | 4.0 | 7.0 | 0.00 | 0.00 | 0.00 | 80 | 1008.8 |
| 20260905132530 | 83 | 357 | 0.0 | 3.0 | 0.00 | 0.00 | 0.00 | 80 | 1008.7 |
| 20260905132342 | 83 | 24 | 0.0 | 7.0 | 0.00 | 0.00 | 0.00 | 80 | 1008.6 |
| 20260905132031 | 83 | 57 | 3.0 | 7.0 | 0.00 | 0.00 | 0.00 | 80 | 1008.7 |
| 20260905131831 | 83 | 301 | 3.0 | 8.0 | 0.00 | 0.00 | 0.00 | 80 | 1008.6 |
| 20260905131530 | 83 | 49 | 5.0 | 8.0 | 0.00 | 0.00 | 0.00 | 80 | 1008.6 |
| 20260905131321 | 83 | 291 | 1.0 | 6.0 | 0.00 | 0.00 | 0.00 | 80 | 1008.6 |
| 20260905131030 | 83 | 245 | 1.0 | 6.0 | 0.00 | 0.00 | 0.00 | 80 | 1008.6 |
| 20260905130812 | 83 | 310 | 1.0 | 5.0 | 0.00 | 0.00 | 0.00 | 80 | 1008.6 |
| 20260905130530 | 83 | 282 | 2.0 | 6.0 | 0.00 | 0.00 | 0.00 | 80 | 1008.6 |
| 20260905130301 | 83 | 250 | 2.0 | 6.0 | 0.00 | 0.00 | 0.00 | 80 | 1008.6 |
| 20260905125751 | 83 | 200 | 3.0 | 8.0 | 0.00 | 0.00 | 0.00 | 80 | 1008.5 |
| 20260905125530 | 83 | 258 | 2.0 | 5.0 | 0.00 | 0.00 | 0.00 | 80 | 1008.4 |
| 20260905125241 | 83 | 18 | 1.0 | 7.0 | 0.00 | 0.00 | 0.00 | 80 | 1008.4 |
| 20260905125030 | 83 | 360 | 3.0 | 7.0 | 0.00 | 0.00 | 0.00 | 79 | 1008.4 |
| 20260905124732 | 83 | 360 | 1.0 | 6.0 | 0.00 | 0.00 | 0.00 | 79 | 1008.4 |
| 20260905124530 | 83 | 324 | 1.0 | 6.0 | 0.00 | 0.00 | 0.00 | 79 | 1008.3 |
| 20260905124221 | 83 | 322 | 0.0 | 4.0 | 0.00 | 0.00 | 0.00 | 79 | 1008.3 |
| 20260905124030 | 83 | 281 | 1.0 | 7.0 | 0.00 | 0.00 | 0.00 | 79 | 1008.3 |
| 20260905123711 | 83 | 295 | 4.0 | 7.0 | 0.00 | 0.00 | 0.00 | 79 | 1008.2 |
| 20260905123530 | 83 | 263 | 2.0 | 6.0 | 0.00 | 0.00 | 0.00 | 79 | 1008.2 |
| 20260905123202 | 83 | 253 | 2.0 | 6.0 | 0.00 | 0.00 | 0.00 | 79 | 1008.2 |
| 20260905123029 | 83 | 248 | 1.0 | 10.0 | 0.00 | 0.00 | 0.00 | 79 | 1008.2 |
| 20260905122651 | 83 | 250 | 5.0 | 10.0 | 0.00 | 0.00 | 0.00 | 79 | 1008.2 |
| 20260905122530 | 83 | 277 | 2.0 | 7.0 | 0.00 | 0.00 | 0.00 | 79 | 1008.1 |
| 20260905122141 | 83 | 272 | 4.0 | 7.0 | 0.00 | 0.00 | 0.00 | 79 | 1008.1 |
| 20260905122030 | 83 | 277 | 2.0 | 5.0 | 0.00 | 0.00 | 0.00 | 79 | 1008.0 |
| 20260905121631 | 83 | 256 | 2.0 | 5.0 | 0.00 | 0.00 | 0.00 | 79 | 1008.1 |
| 20260905121529 | 83 | 238 | 3.0 | 5.0 | 0.00 | 0.00 | 0.00 | 79 | 1008.0 |
| 20260905121121 | 83 | 255 | 2.0 | 5.0 | 0.00 | 0.00 | 0.00 | 79 | 1008.0 |
| 20260905121029 | 83 | 277 | 4.0 | 6.0 | 0.00 | 0.00 | 0.00 | 79 | 1008.0 |
| 20260905120611 | 83 | 257 | 2.0 | 8.0 | 0.00 | 0.00 | 0.00 | 79 | 1007.9 |
| 20260905120530 | 83 | 284 | 3.0 | 8.0 | 0.00 | 0.00 | 0.00 | 79 | 1007.9 |
| 20260905120100 | 83 | 294 | 3.0 | 6.0 | 0.00 | 0.00 | 0.00 | 79 | 1007.9 |
| 20260905120029 | 83 | 212 | 2.0 | 5.0 | 0.00 | 0.00 | 0.00 | 79 | 1007.9 |
| 20260905115551 | 83 | 274 | 2.0 | 7.0 | 0.00 | 0.00 | 0.00 | 79 | 1007.9 |
| 20260905115529 | 83 | 306 | 1.0 | 7.0 | 0.00 | 0.00 | 0.00 | 79 | 1007.8 |
| 20260905115041 | 83 | 197 | 5.0 | 8.0 | 0.00 | 0.00 | 0.00 | 79 | 1007.8 |
| 20260905115030 | 83 | 255 | 5.0 | 8.0 | 0.00 | 0.00 | 0.00 | 79 | 1007.8 |
| 20260905114532 | 84 | 233 | 2.0 | 5.0 | 0.00 | 0.00 | 0.00 | 79 | 1007.6 |
| 20260905114530 | 84 | 234 | 2.0 | 5.0 | 0.00 | 0.00 | 0.00 | 79 | 1007.6 |
| 20260905114029 | 84 | 268 | 1.0 | 5.0 | 0.00 | 0.00 | 0.00 | 79 | 1007.6 |
| 20260905114021 | 84 | 209 | 1.0 | 5.0 | 0.00 | 0.00 | 0.00 | 79 | 1007.6 |
| 20260905113529 | 84 | 297 | 1.0 | 6.0 | 0.00 | 0.00 | 0.00 | 79 | 1007.5 |
| 20260905113030 | 84 | 327 | 1.0 | 9.0 | 0.00 | 0.00 | 0.00 | 79 | 1007.5 |
| 20260905113001 | 84 | 331 | 1.0 | 9.0 | 0.00 | 0.00 | 0.00 | 79 | 1007.5 |
| 20260905112529 | 84 | 245 | 2.0 | 6.0 | 0.00 | 0.00 | 0.00 | 78 | 1007.4 |
| 20260905112450 | 84 | 255 | 2.0 | 6.0 | 0.00 | 0.00 | 0.00 | 78 | 1007.3 |
| 20260905112029 | 84 | 248 | 3.0 | 7.0 | 0.00 | 0.00 | 0.00 | 78 | 1007.3 |
| 20260905111941 | 84 | 291 | 4.0 | 7.0 | 0.00 | 0.00 | 0.00 | 78 | 1007.3 |
| 20260905111529 | 84 | 272 | 4.0 | 7.0 | 0.00 | 0.00 | 0.00 | 78 | 1007.2 |
| 20260905111431 | 84 | 273 | 3.0 | 7.0 | 0.00 | 0.00 | 0.00 | 78 | 1007.3 |
| 20260905111029 | 84 | 249 | 4.0 | 8.0 | 0.00 | 0.00 | 0.00 | 78 | 1007.2 |
| 20260905110920 | 84 | 267 | 4.0 | 8.0 | 0.00 | 0.00 | 0.00 | 78 | 1007.2 |
| 20260905110529 | 84 | 225 | 1.0 | 4.0 | 0.00 | 0.00 | 0.00 | 78 | 1007.2 |
| 20260905110410 | 84 | 348 | 1.0 | 4.0 | 0.00 | 0.00 | 0.00 | 78 | 1007.2 |
| 20260905110029 | 84 | 355 | 0.0 | 3.0 | 0.00 | 0.00 | 0.00 | 78 | 1007.1 |
| 20260905105901 | 84 | 294 | 0.0 | 3.0 | 0.00 | 0.00 | 0.00 | 78 | 1007.0 |
| 20260905105529 | 84 | 41 | 0.0 | 6.0 | 0.00 | 0.00 | 0.00 | 78 | 1007.0 |
| 20260905105350 | 84 | 239 | 1.0 | 6.0 | 0.00 | 0.00 | 0.00 | 78 | 1007.0 |
| 20260905105030 | 84 | 232 | 3.0 | 7.0 | 0.00 | 0.00 | 0.00 | 78 | 1007.0 |
| 20260905104841 | 84 | 298 | 4.0 | 7.0 | 0.00 | 0.00 | 0.00 | 78 | 1006.9 |
| 20260905104529 | 84 | 327 | 4.0 | 8.0 | 0.00 | 0.00 | 0.00 | 78 | 1006.8 |
| 20260905104330 | 84 | 262 | 3.0 | 8.0 | 0.00 | 0.00 | 0.00 | 78 | 1006.8 |
| 20260905104029 | 84 | 272 | 2.0 | 8.0 | 0.00 | 0.00 | 0.00 | 78 | 1006.8 |
| 20260905103820 | 84 | 227 | 4.0 | 8.0 | 0.00 | 0.00 | 0.00 | 77 | 1006.8 |
| 20260905103529 | 85 | 319 | 3.0 | 8.0 | 0.00 | 0.00 | 0.00 | 77 | 1006.8 |